Regional Weather Roundup
Issued by NWS

Home | Current Version | Previous Version | Graphics & Text | Print | Product List | Glossary On
Versions: 1 2 3 4 5 6 7 8 9 10 11 12 13 14 15 16 17 18 19 20 21 22 23 24 25 26 27 28 29 30 31 32 33 34 35 36 37 38 39 40 41 42 43 44 45 46 47 48 49 50
000
ASUS44 KMEG 100610
RWRTN
TENNESSEE HOURLY STATE WEATHER ROUNDUP
NATIONAL WEATHER SERVICE MEMPHIS TN
1200 AM CST WED FEB 10 2016

TNZ002-004-019-021-049-052-054-088>092-100700-
WEST TENNESSEE

CITY           SKY/WX    TMP DP  RH WIND       PRES   REMARKS
MEMPHIS INTL   CLEAR     30  13  49 NW9       30.17S WCI  22
NWS MEMPHIS      N/A     26 N/A N/A MISG        N/A
JACKSON        CLEAR     23  12  62 W5        30.15S WCI  17
DYERSBURG      CLEAR     25  12  58 NW9G16    30.18R WCI  15
UNION CITY     PTCLDY    21  12  68 NW7       30.13R WCI  13
PARIS          CLOUDY    19  12  73 W6        30.10F WCI  11
$$

TNZ008-025-027-028-033-062-065-066-100700-
NORTH MIDDLE TENNESSEE

CITY           SKY/WX    TMP DP  RH WIND       PRES   REMARKS
NASHVILLE      LGT SNOW  21  15  78 W3        30.10S
CLARKSVILLE    MOCLDY    20  17  88 CALM      30.09F
SMYRNA         CLOUDY    21  14  74 NW10      30.12S WCI  10
COOKEVILLE     CLOUDY    19  14  79 NW8       30.03R WCI   9
CROSSVILLE     LGT SNOW  17  11  77 W10       29.95F WCI   5
$$

TNZ061-075-076-078-094-096-097-100700-
SOUTH MIDDLE TENNESSEE

CITY           SKY/WX    TMP DP  RH WIND       PRES   REMARKS
TULLAHOMA      CLOUDY    19  14  79 NW7       30.06S WCI  10
WINCHESTER     CLOUDY    19  16  86 CALM      30.07F
MCMINNVILLE    CLOUDY    19  12  73 VRB7      30.05S WCI  10
COLUMBIA       CLOUDY    21  19  93 CALM      30.09R
SHELBYVILLE    CLOUDY    21  18  86 NW9       30.09S WCI  11
$$

TNZ017-018-042-046-047-100700-
NORTHEAST TENNESSEE

CITY           SKY/WX    TMP DP  RH WIND       PRES   REMARKS
TRI CITIES     LGT SNOW  21  17  84 SW7       29.89F FOG     WCI  12
$$

TNZ012-013-036-069-073-074-100700-
CENTRAL EAST TENNESSEE

CITY           SKY/WX    TMP DP  RH WIND       PRES   REMARKS
KNOXVILLE      FLURRIES  22  10  60 NW14      29.99F WCI   9
OAK RIDGE      CLOUDY    23  12  62 VRB6      30.01S WCI  16
GATLINBURG     CLOUDY    21   9  58 W10       29.98S WCI  10
$$

TNZ083-085-099-100700-
SOUTHEAST TENNESSEE

CITY           SKY/WX    TMP DP  RH WIND       PRES   REMARKS
CHATTANOOGA    FLURRIES  25  16  68 W10       30.06R WCI  15
$$

SKY/WX REPORTED AS FAIR MEANS FEW OR NO CLOUDS BELOW
12 THOUSAND FEET.




USA.gov is the U.S. government's official web portal to all federal, state and local government web resources and services.